Zurück zum Katalog

AEHF 5

USA 292

AktivMilitärGEO
NORAD 44481·PAYLOAD·🇺🇸 United States

Gestartet Aug 8, 2019 von Cape Canaveral Space Force Station

Loading…

TLE

AktuellSource: Space-Track

Epoche: Sep 14, 2026, 15:54 UTC

1 44481U 19051A   26257.66261384 -.00000266  00000-0  00000-0 0  9990
2 44481   1.3929 343.6193 0029135  12.1612 329.4825  1.00273403 26156

Verfolge AEHF 5 in Echtzeit mit AllMySat

Download on the App Store